GEFSCGP_500_meanwind_000.txt.gz
Wind_Speed
20 25 28 29 31 33 34 38 41 42 42 42 42 41 41 43 43 41 40 39 38 40 38 27 21 18 20 19 19 18 20 18 18 18 18 19 17 16 15 15 13 14 16 19
17 22 25 29 31 33 36 38 41 42 43 43 41 38 38 39 38 36 35 34 33 25 28 25 20 19 21 20 20 18 20 20 21 21 23 20 17 13 12 13 14 15 18 21
17 21 24 28 31 34 35 38 41 43 44 43 41 36 34 35 36 36 34 33 38 32 28 30 24 18 20 22 24 20 22 23 23 22 22 22 16 11 12 15 17 20 23 25
13 16 18 21 23 26 27 33 39 43 45 44 42 40 31 31 33 34 32 31 32 30 29 31 28 29 27 24 26 23 21 21 22 23 22 18 13 12 14 18 21 22 24 25
14 16 18 21 24 26 28 28 27 29 33 37 39 40 33 34 33 32 29 26 23 27 30 36 35 36 31 28 27 24 20 20 22 23 22 20 17 16 17 20 24 27 27 26
17 20 22 26 30 32 32 31 26 24 26 25 27 30 32 35 32 29 29 27 28 26 28 35 37 32 27 29 28 20 23 27 25 22 19 16 15 19 21 22 24 26 27 24
16 23 28 31 35 37 35 31 31 28 24 20 19 20 24 28 29 26 26 28 31 26 15 19 29 35 34 34 31 22 27 28 23 15 14 15 16 20 22 24 25 24 26 26
22 24 31 37 41 43 39 31 33 31 27 25 20 18 20 19 19 19 17 20 19 18 22 25 32 35 31 28 36 31 24 20 14 13 14 15 18 21 21 23 24 24 26 27
31 32 34 42 47 48 43 36 34 34 33 29 25 25 25 19 18 17 14 17 23 20 19 23 27 34 35 28 28 27 22 10 8 10 14 17 19 20 22 26 27 26 27 26
40 44 44 49 50 50 50 42 33 31 30 23 17 15 18 20 18 21 16 17 21 18 16 21 29 23 20 24 31 27 17 13 11 13 16 18 19 19 22 26 27 26 27 26
49 53 55 52 44 33 31 31 28 28 30 23 17 16 17 20 21 26 20 17 19 21 18 24 25 17 9 11 20 21 13 10 11 16 18 21 23 23 26 28 26 26 27 25
52 54 48 37 25 18 13 14 22 25 29 22 15 13 16 18 14 20 22 18 16 9 4 5 9 4 6 3 3 5 8 10 16 22 25 26 25 24 26 26 24 25 27 26
50 42 30 16 9 9 6 4 10 12 18 21 15 10 12 12 9 12 10 12 6 9 9 6 5 3 1 3 5 6 10 16 19 22 25 26 24 24 25 24 22 21 22 23
38 27 16 10 2 4 4 9 3 8 7 15 16 11 7 9 14 19 16 11 5 5 8 1 4 3 4 7 8 9 11 14 18 21 19 20 23 25 28 26 23 21 20 21
24 13 12 8 6 2 8 17 13 14 15 13 10 8 9 12 17 24 23 18 11 8 12 6 3 7 13 15 12 11 14 15 19 21 20 20 24 26 25 25 21 24 23 21
17 15 11 13 10 7 17 23 19 13 10 5 5 2 6 11 16 19 19 18 15 14 16 13 13 15 19 19 15 13 14 14 18 21 21 23 27 23 27 25 21 22 19 15
27 24 18 17 13 16 19 21 20 16 11 10 8 6 7 8 14 10 8 8 10 10 12 20 18 12 18 19 19 20 16 15 17 19 23 24 25 26 28 28 25 22 19 17
35 34 29 24 21 19 21 22 23 22 18 14 14 12 10 11 13 13 6 5 8 1 2 6 10 12 14 13 14 14 14 14 17 19 21 22 22 22 22 24 25 23 20 17
33 35 33 28 23 21 21 23 23 22 21 20 19 13 14 15 16 17 13 7 7 6 5 4 4 6 7 9 12 12 13 15 16 18 22 25 25 23 21 19 20 20 19 16
29 30 26 24 22 22 20 18 18 20 21 17 13 11 12 14 17 17 16 10 8 9 7 4 1 2 4 7 10 13 14 14 14 17 21 23 23 21 20 20 19 19 18 17
26 26 23 23 23 22 20 19 18 18 18 13 12 13 15 19 19 18 15 13 12 11 8 5 3 4 7 9 12 13 14 14 14 17 19 20 21 22 23 22 20 18 17 17
24 24 22 20 18 17 15 13 13 15 20 17 14 14 14 15 16 15 13 11 10 8 7 5 6 8 10 13 14 15 14 13 14 15 16 17 20 22 22 19 18 17 16 17
21 21 21 17 14 12 12 12 12 11 11 13 14 12 12 13 13 12 11 9 9 10 10 11 12 12 13 14 15 15 14 14 15 17 17 18 20 20 18 17 16 15 17 19
17 14 14 11 9 7 7 9 10 11 6 6 9 10 11 11 10 9 9 10 11 13 13 13 13 14 15 15 15 15 16 17 18 18 18 18 18 18 18 16 16 17 18 19
27 17 11 6 6 6 1 3 4 6 5 3 5 6 7 9 9 8 10 11 11 13 12 12 12 14 15 14 13 13 14 16 16 16 16 17 17 17 17 16 15 15 16 16
28 29 24 14 9 9 7 4 6 4 4 5 5 2 2 5 6 6 7 9 11 12 12 13 13 13 14 14 14 15 15 14 14 15 15 14 15 16 16 14 13 14 16 15

GEFSCGP_500_meanwind_006.txt.gz
Wind_Speed
21 24 28 30 32 34 36 38 39 40 41 42 42 42 43 45 45 44 44 45 44 41 38 32 28 25 25 27 27 28 29 28 24 23 23 21 19 18 18 17 19 20 22 21
19 23 25 28 30 33 35 36 38 39 41 41 42 42 44 45 46 45 44 44 43 42 40 35 30 27 25 29 29 30 32 33 29 26 24 21 19 19 19 20 21 23 24 22
22 23 25 28 30 32 34 35 36 37 38 39 40 41 42 44 46 47 45 43 42 41 39 37 33 30 27 29 30 31 34 36 35 31 27 24 23 22 21 21 22 24 25 24
20 22 25 28 30 32 33 34 35 35 34 35 36 37 36 38 40 43 44 44 41 40 38 37 36 33 32 31 32 33 36 38 38 33 28 26 24 23 22 23 24 25 26 26
25 28 30 32 34 36 38 38 38 37 36 36 35 37 37 36 35 35 37 40 41 39 37 36 36 35 36 37 37 38 39 40 41 36 30 26 24 23 23 24 26 27 27 26
31 35 37 39 40 41 42 43 43 43 41 39 36 36 36 34 32 31 31 32 37 39 37 36 35 36 39 40 42 42 43 43 44 40 33 28 24 23 25 27 27 27 27 26
35 40 43 44 45 45 46 46 47 47 45 42 37 36 36 32 29 27 26 27 30 36 38 38 37 37 39 42 44 45 47 47 47 43 36 29 25 24 26 27 27 27 28 27
41 44 47 50 50 50 48 48 47 47 45 42 39 37 35 31 28 26 24 23 25 31 37 40 40 40 40 41 43 47 50 47 49 46 37 28 23 23 24 26 27 27 27 27
48 48 51 52 53 53 52 50 47 44 42 40 37 33 30 27 27 25 23 21 23 27 32 36 39 40 40 40 40 44 46 46 43 37 29 23 20 21 22 23 24 25 26 27
44 41 39 38 35 34 35 33 30 29 27 26 26 25 24 22 23 25 24 22 22 22 25 29 33 35 38 38 37 32 34 34 32 27 21 19 18 19 20 22 24 26 28 29
31 26 23 21 19 18 17 16 14 12 14 17 18 17 16 16 18 21 21 20 18 15 15 19 24 27 28 32 33 29 25 25 24 20 17 16 16 17 21 24 26 28 29 30
27 24 22 21 21 18 16 11 6 1 3 8 10 8 8 9 10 12 13 15 14 10 6 7 6 2 6 10 12 12 13 15 14 12 12 13 16 19 22 23 24 24 25 26
26 23 21 21 22 22 20 18 12 10 8 5 3 1 2 3 2 4 5 8 10 6 3 5 7 11 13 12 9 6 4 3 6 9 12 15 16 16 16 17 18 20 20 21
27 24 23 23 23 23 21 20 17 14 11 9 7 6 8 8 4 2 4 6 9 8 8 9 10 11 11 9 6 2 1 4 7 11 13 14 13 13 14 16 17 18 18 18
28 25 23 23 23 23 22 21 20 18 16 14 12 11 11 10 7 6 6 7 9 10 10 11 11 9 7 4 1 2 5 8 11 13 14 14 14 14 15 17 19 18 17 17
28 27 26 25 25 24 22 20 19 18 17 15 13 13 14 13 10 7 8 9 9 10 10 11 9 5 1 3 4 6 8 10 12 14 14 14 15 16 17 19 20 18 16 16
26 27 28 28 27 26 21 19 19 19 19 18 18 18 18 16 14 11 10 11 11 10 8 9 9 7 6 5 4 4 5 8 10 12 13 14 15 17 19 19 17 16 16 17
21 22 24 25 26 24 22 19 18 19 21 22 24 22 21 20 19 18 16 13 10 7 4 3 4 4 3 1 1 3 5 8 11 12 13 15 17 18 18 18 17 16 17 18
19 20 21 22 23 24 21 17 14 12 15 18 19 21 21 22 23 21 20 18 15 11 9 7 6 5 5 4 4 5 7 10 12 13 14 15 17 18 18 19 19 19 18 18
18 19 21 21 21 21 21 19 15 12 12 14 15 17 20 22 21 20 20 19 17 15 13 11 10 9 9 8 9 9 10 11 12 13 15 17 18 20 20 21 21 20 18 16
19 19 20 20 20 19 18 17 16 13 12 13 13 14 15 16 15 15 17 16 15 14 13 12 11 10 10 11 12 12 13 14 15 16 17 19 21 22 22 22 21 20 18 16
21 20 20 19 19 18 17 13 12 12 11 10 10 11 11 11 11 12 13 14 13 12 12 11 12 12 13 13 13 14 14 15 17 18 19 20 21 22 21 21 20 19 16 15
25 24 23 22 20 18 15 12 10 9 8 7 7 8 8 9 9 10 11 12 13 13 12 12 12 13 13 14 15 16 17 17 18 18 19 21 21 21 20 19 18 17 15 15
27 28 28 28 27 21 14 9 7 6 5 6 5 6 6 7 8 9 10 12 13 14 13 13 13 13 14 16 17 18 18 18 18 20 21 21 20 19 18 17 15 14 14 14
29 30 30 31 33 30 18 9 6 4 3 3 3 3 4 5 6 8 10 11 12 13 14 14 14 14 15 16 17 17 18 18 18 19 19 19 19 18 16 15 14 13 13 13
25 29 31 33 35 35 29 16 6 4 4 3 3 4 5 5 6 8 9 10 11 12 15 16 15 15 15 16 16 16 16 16 16 17 18 19 19 19 17 15 14 14 13 13

GEFSCGP_500_meanwind_012.txt.gz
Wind_Speed
24 26 28 30 32 34 36 38 40 42 42 42 44 45 45 44 43 43 42 41 40 40 39 39 38 37 36 35 35 35 34 33 32 31 31 29 27 26 27 28 29 29 29 26
24 27 28 30 33 34 36 38 39 42 42 42 43 44 43 42 42 41 40 39 39 39 39 39 39 40 39 39 38 38 37 36 35 35 36 35 32 30 30 32 34 35 32 29
25 27 30 33 35 37 38 39 40 42 42 42 42 43 41 39 38 36 35 34 33 33 34 35 37 38 39 40 40 40 39 38 37 39 40 39 36 33 32 32 35 36 34 31
26 30 33 36 38 39 41 42 42 42 41 41 40 39 40 35 35 33 32 31 30 28 28 29 31 35 37 39 40 40 40 39 39 41 42 41 39 37 35 33 34 36 35 32
30 33 36 39 42 43 46 47 46 45 44 44 43 42 43 39 37 36 35 34 32 31 30 29 30 32 35 38 41 41 42 42 42 43 45 44 42 44 42 38 36 37 36 33
28 29 30 33 37 40 43 45 47 47 46 47 42 41 42 42 38 37 36 36 35 34 34 33 33 34 35 38 41 42 43 44 45 46 45 45 45 47 47 44 40 38 37 33
25 24 25 27 29 32 34 36 39 40 39 39 40 40 43 41 38 36 35 35 36 36 37 37 37 37 37 38 41 42 42 44 44 44 45 46 47 48 49 47 44 40 37 33
24 25 26 26 26 27 28 27 27 27 25 27 30 32 33 32 32 32 32 33 33 34 36 37 37 37 37 38 39 41 41 41 40 41 43 46 48 50 50 50 47 41 35 31
25 25 25 24 24 24 24 21 17 14 14 18 21 25 25 24 26 27 28 28 28 29 29 30 32 32 32 33 35 37 38 37 37 38 40 43 46 49 50 50 46 38 31 26
28 26 26 24 24 23 23 21 16 10 6 4 6 11 16 17 18 18 18 18 18 19 20 20 21 21 22 23 26 30 33 34 34 35 38 41 43 45 46 45 39 32 26 21
32 30 27 25 23 23 21 20 19 16 10 6 2 2 4 6 8 9 9 9 8 8 7 9 11 13 13 15 18 22 24 26 28 30 33 35 34 32 30 28 24 20 17 16
34 33 30 26 25 23 22 20 19 17 14 10 7 6 5 3 3 4 6 7 8 6 4 4 4 5 7 9 11 13 15 19 21 21 21 21 19 16 14 13 12 10 11 13
34 34 32 28 25 23 22 22 19 17 15 12 10 8 6 4 3 4 8 10 9 8 6 5 5 6 7 8 8 8 9 9 10 9 9 8 7 6 6 5 4 6 9 12
31 32 31 28 26 24 24 23 21 19 16 14 13 12 11 11 10 9 10 11 11 9 8 8 8 9 11 11 10 9 8 7 7 7 7 7 6 5 3 1 3 7 10 13
29 30 30 28 25 25 26 26 24 22 20 19 18 17 17 16 15 13 13 12 11 10 9 8 9 11 12 13 12 11 10 10 9 9 8 7 6 3 1 3 6 9 12 15
28 28 28 27 25 23 24 26 26 23 23 22 21 19 18 17 15 14 13 10 8 8 6 6 7 10 11 12 11 10 10 10 9 8 7 6 4 4 4 6 8 10 13 15
26 26 26 26 25 23 22 21 22 22 22 22 21 21 19 17 14 12 11 9 8 8 7 7 8 9 11 11 11 10 10 9 8 8 7 7 7 7 9 10 12 14 16 17
27 26 24 23 23 23 21 19 18 20 21 22 22 22 20 20 17 15 14 13 12 11 10 11 11 11 12 12 11 11 10 10 9 9 9 10 11 12 13 14 16 18 19 21
30 28 25 22 20 20 19 18 17 18 19 21 22 22 21 21 21 18 17 15 14 13 13 13 13 12 11 10 10 10 10 10 10 11 11 12 13 13 14 16 17 18 20 20
33 32 28 23 19 18 17 16 16 16 17 18 19 20 21 22 21 19 17 16 15 14 13 12 11 11 10 10 10 11 11 11 12 12 12 12 12 13 14 15 17 18 19 20
35 35 32 26 20 16 15 14 14 14 15 16 17 19 19 20 18 17 16 16 15 14 14 13 13 12 13 13 13 13 13 13 13 13 13 14 14 15 15 16 17 17 17 18
33 36 35 31 24 17 14 13 13 13 13 14 15 16 17 17 16 16 16 16 15 15 14 14 14 14 14 14 14 14 14 14 14 14 15 16 17 17 17 17 18 17 17 16
29 33 34 33 28 23 17 14 13 12 12 12 13 13 14 14 14 14 14 15 15 15 14 14 14 15 15 15 15 15 15 14 14 15 16 17 18 18 19 19 19 18 17 17
25 28 31 32 30 26 21 16 14 12 11 11 12 11 11 11 11 11 12 12 14 14 14 14 15 15 16 16 16 16 15 15 16 17 18 19 19 20 21 21 20 19 18 18
19 23 27 29 29 27 24 20 16 13 11 10 10 10 10 9 9 9 10 11 12 14 14 14 15 16 16 17 16 16 16 16 17 18 18 19 20 21 21 21 21 20 20 19
15 18 21 24 26 26 24 22 18 15 12 10 9 8 8 8 7 8 9 9 11 12 13 13 14 14 15 16 16 16 16 16 16 17 18 19 20 21 22 23 22 22 22 22

GEFSCGP_500_meanwind_018.txt.gz
Wind_Speed
18 21 25 26 28 29 30 32 34 35 39 43 44 44 46 46 44 42 43 45 46 46 45 44 42 41 40 40 39 38 37 36 35 34 34 33 32 31 29 27 27 27 27 28
20 23 24 24 27 30 32 34 36 38 40 43 45 46 45 45 44 42 41 43 45 45 44 43 42 42 41 40 40 39 39 38 37 36 35 36 36 34 32 30 29 28 29 30
20 24 24 27 29 31 30 33 36 38 40 42 42 44 43 43 46 44 42 41 42 41 40 39 38 38 38 37 37 37 37 36 36 36 35 37 37 36 34 32 32 31 31 31
18 20 21 23 25 26 26 30 32 34 36 38 38 41 37 36 40 41 41 40 39 37 36 34 33 32 32 32 32 32 32 32 33 34 35 36 38 38 37 36 37 36 34 33
17 18 20 23 25 26 27 28 30 33 35 35 32 33 31 32 37 37 36 37 37 36 34 33 31 30 29 29 29 29 29 30 31 32 34 36 38 39 40 40 41 41 39 37
15 18 20 22 24 24 25 26 29 32 30 26 23 23 28 34 36 35 34 34 34 34 34 34 33 33 32 31 30 30 30 31 31 33 35 36 37 40 41 42 43 44 42 39
20 19 20 21 21 22 23 25 27 26 20 17 18 21 27 32 37 38 37 35 34 34 34 34 34 34 35 34 34 33 33 34 35 36 37 38 38 39 41 43 45 45 42 40
22 22 20 20 20 21 23 25 25 23 18 13 15 19 21 25 29 35 38 36 33 34 34 33 34 35 35 35 36 36 37 38 39 40 40 39 39 39 40 42 42 42 41 40
21 19 18 19 20 22 23 24 23 20 17 13 14 17 19 23 26 26 28 30 31 31 30 30 30 32 33 34 35 37 38 39 39 39 38 36 36 36 37 38 38 38 39 39
21 19 18 20 22 23 24 23 23 20 18 14 14 15 16 16 18 21 22 22 23 23 24 24 25 26 27 29 30 32 33 34 33 32 31 31 31 31 32 33 34 34 36 37
21 20 18 19 22 23 24 23 23 21 19 16 15 16 16 14 13 12 11 11 12 13 15 15 16 17 19 21 22 24 25 26 26 26 26 26 27 28 30 31 32 33 34 35
21 19 18 19 21 23 24 24 23 22 21 18 17 18 16 13 11 8 6 3 2 3 4 3 3 5 7 9 12 14 15 17 17 18 19 21 23 24 24 26 27 26 25 24
21 20 20 21 23 24 23 23 24 24 23 21 20 20 17 15 13 11 9 9 9 7 6 6 7 6 7 5 3 1 3 5 8 10 11 13 13 13 13 13 12 12 12 11
21 20 20 20 20 20 22 24 26 25 24 23 24 23 21 19 17 16 15 16 16 15 14 13 13 15 15 16 15 13 11 8 7 6 5 3 2 1 1 2 2 3 4 5
22 20 18 17 18 19 22 25 26 27 26 25 23 23 22 22 21 21 21 20 19 19 19 19 19 20 20 19 20 20 18 16 14 13 12 9 8 7 6 6 6 6 6 8
25 20 18 19 19 19 21 24 26 26 26 26 25 24 23 23 23 23 23 23 22 21 21 21 20 20 19 19 18 17 16 14 13 12 11 10 8 8 7 7 8 9 10 12
28 24 21 19 17 17 21 22 23 24 25 25 24 23 23 23 24 25 24 24 23 22 20 20 19 18 18 17 16 15 14 13 11 10 9 8 8 7 8 9 10 11 13 15
30 26 22 20 19 20 18 19 20 21 22 23 23 22 22 21 22 24 23 23 22 22 22 21 19 18 18 16 15 14 14 13 12 11 11 10 10 9 10 10 11 12 13 15
30 28 25 22 20 17 16 16 17 18 19 20 20 20 20 20 22 23 22 21 21 21 20 19 18 18 17 17 16 15 15 15 14 14 14 14 13 13 13 13 13 14 14 16
27 28 27 24 21 19 17 15 15 15 17 18 18 18 19 19 21 21 20 20 19 19 19 18 18 18 17 17 17 17 17 17 17 16 16 16 16 16 16 16 16 16 16 17
24 26 27 26 22 20 19 16 15 15 16 16 16 16 17 18 19 19 19 18 18 18 18 18 17 17 17 18 18 18 18 18 18 19 19 19 19 19 20 20 20 20 19 19
22 23 25 25 23 20 20 17 15 15 15 15 14 15 15 16 16 17 17 17 17 17 17 17 17 18 18 18 18 18 18 19 19 19 19 20 21 21 23 23 23 23 22 21
18 19 21 22 22 22 21 19 17 16 16 15 14 14 14 14 14 15 15 15 15 16 16 16 16 17 17 17 17 17 18 18 19 19 20 21 22 23 25 25 25 25 23 22
14 16 17 18 19 20 20 19 19 17 17 16 15 14 13 13 12 13 14 14 14 14 14 14 15 15 16 16 16 16 17 17 18 19 20 21 22 24 26 26 26 26 25 24
11 12 13 15 16 17 18 18 18 18 18 17 16 15 13 12 12 12 12 13 13 13 13 13 13 14 14 15 15 16 16 17 18 19 20 21 22 24 25 26 26 26 26 25
10 10 10 11 13 14 16 16 17 18 18 18 17 15 14 12 11 11 11 11 11 11 11 11 11 12 13 14 15 15 16 17 18 19 20 20 22 23 25 26 26 26 26 26

GEFSCGP_500_meanwind_024.txt.gz
Wind_Speed
18 20 21 22 23 24 23 23 24 26 28 29 30 32 35 39 40 42 44 45 45 44 42 40 41 42 42 42 42 41 40 39 38 37 35 33 32 31 32 33 34 32 30 30
16 17 18 18 19 21 22 22 22 23 25 27 29 32 35 38 41 43 45 46 48 46 44 43 43 42 43 44 44 44 43 43 42 40 39 37 35 35 35 35 35 35 33 32
14 15 16 18 19 21 23 23 23 23 24 27 30 33 36 39 41 43 45 46 47 47 45 43 43 43 43 43 44 43 43 43 42 41 40 39 37 36 35 36 35 35 35 34
12 15 17 18 18 19 20 21 21 22 23 25 29 33 36 38 39 41 44 46 46 45 43 42 43 43 44 44 43 42 42 41 41 40 39 38 37 36 35 35 33 34 33 33
13 16 17 17 18 19 19 19 19 21 24 26 28 31 32 33 35 38 39 42 43 42 40 39 38 39 41 42 42 41 40 40 39 39 38 36 35 34 33 32 32 32 32 32
14 15 17 17 18 18 18 19 20 21 22 22 24 26 27 27 29 31 34 37 38 37 34 31 30 32 35 36 38 39 38 38 38 37 36 35 34 33 32 32 31 31 32 32
13 15 16 17 18 18 18 18 18 18 19 19 21 22 23 23 24 25 26 27 30 32 32 28 27 25 27 30 33 35 36 37 38 37 36 35 35 34 33 33 32 33 33 33
14 15 16 16 16 16 16 15 15 16 16 16 17 19 20 21 22 21 20 20 20 21 23 24 24 24 25 27 30 33 35 36 37 38 38 37 36 36 35 35 35 35 36 35
17 16 16 16 15 15 15 16 15 14 15 15 16 16 17 19 18 17 16 14 13 13 14 16 17 19 22 25 27 31 33 35 37 38 39 39 39 38 38 38 38 38 38 37
17 15 15 16 15 15 15 16 15 14 15 15 15 16 17 16 16 15 14 14 12 11 10 10 11 12 15 19 22 26 29 32 34 36 38 39 40 40 40 40 39 37 36 35
17 15 15 14 14 14 17 17 15 14 15 15 15 17 17 17 16 16 16 15 14 11 9 7 6 7 8 10 12 15 18 21 25 29 31 33 35 36 36 35 33 32 32 31
18 17 16 17 17 18 18 17 16 16 17 17 16 18 18 18 17 17 17 17 16 13 11 11 9 6 4 1 2 4 7 9 12 16 18 20 22 23 24 25 25 25 24 24
19 18 17 19 20 19 18 18 19 19 18 18 18 18 19 19 18 18 17 17 18 17 16 16 15 14 11 9 8 7 5 4 2 1 3 5 7 9 11 12 12 14 14 15
22 20 20 20 20 19 19 19 20 21 20 20 20 20 19 18 19 19 18 18 18 18 18 18 18 17 16 16 17 17 17 16 14 12 10 9 7 5 4 3 3 4 6 7
22 21 21 19 19 20 20 20 21 21 21 20 20 20 19 19 19 18 18 18 19 19 18 18 18 18 18 18 17 17 17 16 15 15 14 13 11 10 8 7 6 6 6 7
23 22 21 19 19 20 21 22 22 22 21 20 20 19 18 19 19 18 18 18 19 18 18 18 18 17 17 17 17 17 17 16 16 15 14 14 13 13 12 10 10 9 9 9
23 22 21 19 20 20 22 22 22 22 21 20 20 19 19 18 18 18 18 18 18 18 18 18 18 18 18 18 19 19 19 18 18 17 16 16 15 14 13 12 12 12 12 12
22 22 22 21 21 22 22 22 22 21 20 19 19 19 18 18 17 18 18 19 19 19 19 19 19 19 19 19 20 20 20 19 19 18 18 17 17 16 15 15 14 14 14 15
20 21 21 21 21 22 22 22 21 20 19 19 18 18 18 18 18 18 19 19 19 20 20 20 20 20 20 19 19 19 19 19 19 19 19 19 19 19 18 17 17 16 16 16
17 19 20 21 21 21 21 22 21 21 20 19 18 18 18 18 18 19 19 19 20 20 20 20 20 20 19 18 18 18 18 19 19 20 20 20 20 20 19 19 18 18 17 16
13 15 17 18 19 20 21 21 21 21 20 19 19 19 18 18 18 18 18 19 18 19 19 19 19 19 18 17 18 18 19 19 19 20 20 21 21 21 20 20 20 20 20 19
9 11 13 15 17 18 19 20 21 21 20 19 19 19 18 18 17 17 17 17 17 17 17 17 17 17 17 17 18 18 19 19 20 20 21 21 22 22 21 21 22 22 22 21
6 8 10 12 14 15 17 18 19 20 20 19 19 18 17 17 17 16 15 15 15 15 15 16 16 16 17 17 18 19 19 20 20 21 21 21 22 22 22 22 23 23 24 23
5 6 7 8 10 13 14 15 17 19 19 19 19 18 17 16 16 15 14 14 13 13 14 14 14 15 16 16 17 18 19 20 20 20 21 21 22 22 23 23 24 24 24 25
6 6 6 7 8 9 11 12 14 16 17 18 18 18 17 16 15 15 14 13 12 12 12 12 13 14 15 15 16 17 18 19 20 20 19 20 21 21 23 23 24 24 25 25
6 7 7 7 8 9 9 10 11 13 15 16 17 18 18 16 15 15 13 12 11 11 11 11 11 12 13 14 15 16 17 18 19 19 19 19 20 20 21 22 23 24 25 25

GEFSCGP_500_meanwind_030.txt.gz
Wind_Speed
20 22 23 24 25 25 26 26 26 27 27 28 29 30 30 31 32 34 36 38 40 42 44 46 47 48 49 49 48 48 47 46 45 43 41 40 38 37 35 34 33 31 30 30
20 21 21 22 22 22 23 23 24 25 25 26 26 27 29 30 33 35 37 39 41 43 45 46 46 47 49 50 51 51 50 49 49 47 46 44 43 40 38 37 36 35 35 35
18 18 19 20 21 21 21 21 22 23 24 24 25 26 28 30 32 34 37 39 42 43 45 46 48 48 49 50 51 51 51 51 50 49 48 46 44 43 42 42 41 40 39 39
16 17 19 20 20 21 21 21 22 23 23 24 25 27 27 29 31 33 36 38 40 41 43 45 46 47 48 48 48 48 48 50 50 50 48 47 46 44 44 44 43 43 42 41
16 18 19 20 20 20 20 21 21 21 21 23 24 25 26 27 29 32 34 36 37 38 39 40 41 42 42 42 42 43 44 45 46 47 47 46 45 44 43 43 42 42 42 42
16 18 18 18 18 18 18 18 18 19 20 21 22 23 23 24 26 27 29 31 32 33 33 32 33 32 32 33 32 34 36 38 40 41 42 43 43 42 42 41 40 40 39 39
15 16 16 16 15 14 14 14 16 17 16 17 19 20 21 22 23 24 24 25 26 26 24 23 22 21 21 22 22 24 26 29 31 34 36 38 39 39 38 38 37 37 36 36
12 13 13 12 12 13 14 15 15 15 15 15 16 17 19 20 21 22 22 22 21 21 20 18 15 13 12 13 15 17 19 21 23 26 28 30 33 34 35 35 34 33 33 33
11 11 11 11 11 12 13 13 13 13 13 14 14 16 18 19 20 20 21 20 19 19 18 15 13 10 8 8 9 10 13 15 18 20 23 25 27 29 30 31 31 31 31 32
11 12 12 11 12 12 13 14 13 12 12 13 14 16 17 17 17 18 19 20 20 21 19 14 12 12 9 7 7 7 9 10 13 15 17 19 22 24 25 27 28 29 29 30
13 14 14 14 14 14 14 14 14 13 13 14 15 15 17 17 18 19 20 20 20 21 21 19 16 14 14 12 10 9 9 7 6 7 8 10 13 16 18 19 21 23 24 26
14 14 15 15 15 15 15 15 15 15 15 15 15 16 17 17 19 20 21 21 21 21 21 22 20 20 19 18 15 13 14 12 8 6 4 2 3 5 7 10 13 15 17 19
14 15 16 16 16 17 17 17 16 16 16 16 16 17 17 18 19 20 21 20 21 21 22 23 23 22 22 22 21 20 18 17 16 14 12 10 8 5 2 2 4 7 10 12
15 16 16 17 18 18 17 17 17 17 18 18 17 17 18 18 19 20 20 20 21 21 22 22 22 22 22 22 22 22 21 21 20 18 15 13 12 10 9 7 5 3 4 5
16 16 16 17 18 18 17 17 18 18 18 19 19 19 19 19 19 19 20 20 20 21 22 23 23 23 24 23 23 23 22 22 21 20 19 17 15 13 11 9 8 7 7 7
15 16 16 17 18 18 18 18 18 18 18 19 19 19 19 19 19 19 20 21 21 21 22 23 23 23 24 24 23 23 22 21 20 20 19 18 17 15 14 12 11 10 9 9
15 15 16 16 17 18 18 18 18 17 18 18 19 19 19 19 19 19 19 20 21 21 21 22 23 22 23 23 22 22 21 21 20 20 20 19 18 17 16 15 14 13 12 11
14 15 15 16 17 17 18 19 18 17 17 17 18 18 18 18 18 18 18 19 20 20 20 20 21 21 21 21 21 21 20 20 20 21 21 21 20 19 18 17 17 16 15 14
12 13 13 14 16 17 18 19 18 17 17 17 17 18 17 17 17 17 17 17 18 18 18 19 19 19 20 20 20 20 20 21 21 21 22 22 22 21 21 20 20 19 18 17
9 10 11 13 14 16 17 18 18 17 16 17 16 16 16 15 16 16 16 16 16 16 17 17 18 19 19 20 20 20 20 21 21 21 22 22 23 22 22 22 22 21 21 21
7 8 10 11 12 14 15 16 17 17 16 16 15 15 15 14 14 14 14 14 14 15 15 16 18 18 19 19 20 20 20 21 21 22 22 22 23 23 23 23 23 23 24 24
7 8 8 9 10 11 13 15 16 16 16 15 14 14 14 13 12 12 12 12 12 13 14 15 16 17 18 18 19 20 20 20 21 21 22 23 23 24 24 24 24 24 25 25
8 8 8 8 9 9 11 12 13 14 15 15 14 13 13 12 11 9 10 10 11 12 13 14 15 16 16 17 18 19 20 20 20 21 21 22 23 24 24 25 25 25 25 26
10 9 9 8 8 8 9 9 11 12 13 14 14 13 12 12 10 9 8 9 9 10 11 12 13 14 15 16 17 18 19 20 20 21 21 22 23 23 24 25 25 25 26 26
12 11 10 9 8 8 8 8 8 9 10 12 13 13 12 11 11 9 7 7 7 8 9 10 11 13 13 14 15 17 17 18 19 20 21 21 22 22 23 24 25 25 26 26
14 13 12 11 9 8 8 7 7 7 8 9 10 11 12 12 11 10 8 7 7 7 8 8 9 10 11 12 13 15 16 17 18 19 20 21 21 22 22 23 24 25 26 26